COSMOS 2569 (703K)

Last updated on Sat Apr 11 2026 00:02:39 GMT+0000 (Coordinated Universal Time)

1 57517U 23114A 26099.74179404 .00000040 00000+0 00000+0 0 9990 2 57517 65.2649 74.9273 0012758 294.1147 65.7467 2.13103922 20800
UTC large
Height (km)
Speed (km/s)
/
Latitude / Longitude
Inclination (degrees)
Orbital Period (minutes)
Azimuth
Elevation
Range (km)
Doppler Factor

Next 0 passes for location: London (51.5072 / 0.1276)

Sorry there are no passes over London.
COSMOS 2569 (703K)